User: anonymous   Login
Location: Newark
(41.6500°N, 71.4833°W)
Time: 09:32:43
(UTC+00:00)
Language:

A-11 Canister half - Orbit

View from above orbital plane
View from above orbital plane
View from above satellite
View from above satellite

Ground track
Ground track

The orbit data is extracted from the following two-line orbital elements,

1 00051U 60009C   21016.74576615 -.00000125  00000-0 -37685-3 0  9994
2 00051  47.2143  47.5470 0104267  77.6429 283.6008 12.18270843690098
Epoch (UTC): 16 January 2021 17:53:54
Eccentricity: 0.0104267
inclination: 47.2143°
perigee height: 1517 km
apogee height: 1683 km
right ascension of ascending node: 47.5470°
argument of perigee: 77.6429°
revolutions per day: 12.18270843
mean anomaly at epoch: 283.6008°
orbit number at epoch: 69009

The dashed part of the orbit path shows where the satellite is in the earth's shadow,  

DLR